STARLINK-1180 (45076 NORAD) Tracking and Keplerian Element Data

This shows tracking and keplerian element data for the satellite.

Feedback or suggestion? Click here.




ElementValue
Catalog45076
NameSTARLINK-1180
Epoch Orbit176
Epoch Day193.91667824
Epoch Year2020
RAAN184.7168
Inclination52.9997
Eccentricity0.0001424
Argument of Perigee89.3637
Mean Anonmoly350.3228
Mean Motion15.05587639
Decay Rate0.00037275
L11 45076U 20006AJ 20193.91667824 .00037275 00000-0 25634-2 0 9994
L22 45076 52.9997 184.7168 0001424 89.3637 350.3228 15.05587639 1763

Live tracking and technical data element details for STARLINK-1180 (NORAD 45076). STARLINK-1180 can be tracked NOW for your location showing map with azimuth and elevation plus other details from your city location.

Track the satellite on the map from your city or location and see movement details for azimuth, elevation, latitude, longitude, range, height, and movement on the map or in text.







IsCatalogInMostPopularTable: catalog: 45076, numindb: 30
Update: records affected: 1



GetName: 45076 STARLINK-1180

Hit Count: updated at: Mon, 13 Jul 2020 04:30:03 GMT